{"data":{"norad_id":37948,"epoch":"2026-05-24T20:12:21.568320Z","epoch_age_seconds":99118,"freshness":"FRESH","line1":"1 37948U 11073A   26144.84191630 -.00000227  00000+0  00000+0 0  9992","line2":"2 37948  47.7216 271.8324 0112230 220.7905 144.7369  1.00254466 52909","mean_motion":1.00254466,"eccentricity":0.011223,"inclination_deg":47.7216,"raan_deg":271.8324,"arg_perigee_deg":220.7905,"mean_anomaly_deg":144.7369,"bstar":0,"rev_number":5290,"period_min":1436.3449903568,"perigee_km":35318.181520585,"apogee_km":36264.720088446,"semimajor_km":42169.587804515,"source":"CELESTRAK","updated_at":"2026-05-25T13:38:24.210191Z"}}